Details From KAPA - Centennial
To KASE - Aspen Pitkin Co Sardy Fld
Flight Number -
Tags Decoded
Created
Modified
Stats Distance 97 nm / 180 km
Max Altitude 0 ft / 0 m
Waypoints 3
Social Downloads 1
Likes 0
Share VATSIM

Download

Looking for another format? Having issues loading an existing format? Contact us
Advertisement - Login to hide

Notes

Decoded

Route

KAPA KLXV KASE

ID Type Via Altitude Latitude Longitude Leg Dist Tot Dist Heading (true) Name
O KAPA APT - 0 ft / 0 m 39.57290˚ -104.84822˚ - 0 nm - CENTENNIAL
KLXV APT - 0 ft / 0 m 39.22812˚ -106.31836˚ 71 nm 71 nm 254° / 253° -
O KASE APT - 0 ft / 0 m 39.23217˚ -106.87315˚ 25 nm 97 nm 271° / 270° -

Altitude Profile

Advertisement - Login to hide

KAPA

Details ICAO KAPA (APA)
Name CENTENNIAL
Region United States
Timezone America/Denver (UTC-6.0)
Stats Elevation 5,883 ft / 1,793 m (AMSL)
Location 39.570116° -104.848132°
Runways 3
Magnetic Variation 8.083° E

METAR

KAPA 251453Z 26007KT 10SM CLR 22/03 A3015 RMK AO2 SLP141 T02220033 51003

Decode

TAF

TAF KAPA 251145Z 2512/2612 22008KT P6SM SKC FM251500 VRB05KT P6SM SKC FM252000 07006KT P6SM FEW120 FEW200 FM260200 15009KT P6SM FEW120 FM260400 20009KT P6SM SKC

Decode

Departure Runways

ID Width Length Bearing (true) Bearing (mag) Surface Threshold Offset Overrun Length
10 75 ft / 23 m 4,791 ft / 1,460 m 111.02° 102.94° Asphalt 0 ft / 0 m 0 ft / 0 m
17L 100 ft / 30 m 10,017 ft / 3,053 m 177.97° 169.89° Asphalt 0 ft / 0 m 0 ft / 0 m
17R 77 ft / 23 m 7,014 ft / 2,138 m 177.96° 169.88° Asphalt 0 ft / 0 m 0 ft / 0 m
28 75 ft / 23 m 4,791 ft / 1,460 m 291.03° 282.95° Asphalt 0 ft / 0 m 0 ft / 0 m
35L 77 ft / 23 m 7,014 ft / 2,138 m 357.96° 349.88° Asphalt 0 ft / 0 m 0 ft / 0 m
35R 100 ft / 30 m 10,017 ft / 3,053 m 357.97° 349.89° Asphalt 0 ft / 0 m 0 ft / 0 m

KASE

Details ICAO KASE (ASE)
Name Aspen Pitkin Co Sardy Fld
Region United States
Timezone America/Denver (UTC-6.0)
Stats Elevation 7,820 ft / 2,384 m (AMSL)
Location 39.223164° -106.868847°
Runways 1
Magnetic Variation 9.050° E

METAR

KASE 251453Z 00000KT 9SM CLR 16/M02 A3028 RMK AO2 SLP146 T01611022 58001

Decode

TAF

KASE 251127Z 2512/2612 21008KT P6SM SKC FM251400 VRB05KT P6SM SKC FM251900 27010G20KT P6SM FEW250 FM260200 20010KT P6SM FEW250

Decode

Destination Runways

ID Width Length Bearing (true) Bearing (mag) Surface Threshold Offset Overrun Length
15 100 ft / 30 m 7,011 ft / 2,137 m 159.71° 150.66° Asphalt 0 ft / 0 m 499 ft / 152 m
33 100 ft / 30 m 7,011 ft / 2,137 m 339.71° 330.66° Asphalt 0 ft / 0 m 0 ft / 0 m

Approach Navaids

Runway Type Ident Frequency Range Bearing (true) Bearing (mag) Slope Elevation
15 Localiser IPKN 108.50 MHz 25 nm / 46 km 312.00° 302.95° - 10,768 ft / 3,282 m (AMSL)
15 Localiser IASE 111.15 MHz 18 nm / 33 km 159.71° 150.66° - 7,832 ft / 2,387 m (AMSL)
15 DME IASE 111.15 MHz 18 nm / 33 km - - - 7,830 ft / 2,387 m (AMSL)

Popular Alternatives